[[{"header":{"parameterUnit":"m.s-1","parameterCategory":1,"la1":30.2991,"la2":30.254,"lo1":-89.0895,"lo2":-89.0444,"dy":0.0017,"dx":0.0017,"nx":28,"ny":28,"refTime":"2024-04-02T09:00:00:Z","depth":0,"parameterNumber":2,"parameterNumberName":"U-component_of_WINDS"},"data":[0,0,0,0,0,0,0,0,0,0,0,0,0,0,0,0,0,0,0,0,0,0,0,0,0,0,0,0,0,0,0,0,0,0,0,0,0,0,0,0,0,0,0,0,0,0,0,0,0,0,0,0,0,0,0,0,0,0,5.4358,5.4358,0,5.4412,5.4413,5.4414,5.436,5.4358,5.4356,5.4354,5.4407,5.4411,5.4414,0,0,0,0,0,0,0,0,0,0,0,0,0,5.4207,5.421,5.4358,5.4358,5.4359,5.4412,5.4413,5.4414,5.436,5.4358,5.4355,5.4353,5.4406,5.441,5.4414,0,0,0,0,0,0,0,0,0,0,0,0,0,5.4268,5.4211,5.4358,5.4339,5.4338,5.4412,5.4413,5.4414,5.4361,5.4358,5.4355,5.4352,5.4405,5.441,5.4415,5.451,0,0,5.443,5.4433,0,0,0,0,0,0,0,0,5.4265,5.4274,5.4341,5.434,5.4339,5.4376,5.4379,5.4446,5.4362,5.4352,5.4354,5.435,5.4399,5.4405,5.4422,5.4512,5.4514,5.4431,5.4434,5.4436,5.4438,0,0,0,0,0,0,0,5.4261,5.4271,5.4379,5.4342,5.4341,5.4328,5.4333,5.4392,5.4393,5.4353,5.4349,5.4356,5.4398,5.4417,5.4423,5.4515,5.4431,5.4435,5.4438,5.444,5.4689,5.4692,0,0,0,0,0,0,5.4259,5.4268,5.4377,5.4381,5.4294,5.4333,5.4339,5.4368,5.4392,5.4393,5.4359,5.4354,5.441,5.4417,5.4424,5.4538,5.4436,5.4441,5.4444,5.4685,5.4689,5.4693,0,0,0,0,0,0,5.4256,5.4269,5.4375,5.4324,5.4336,5.4339,5.4372,5.437,5.4389,5.4397,5.4396,5.4378,5.4408,5.4417,5.449,5.4539,5.4443,5.4448,5.4681,5.4686,5.4691,5.4766,0,0,0,0,0,0,5.4252,5.4268,5.4304,5.4325,5.4339,5.444,5.4375,5.4374,5.4398,5.4392,5.4415,5.4415,5.4406,5.4482,5.4495,5.4545,5.4452,5.4676,5.4683,5.469,5.4759,5.4773,5.4785,0,0,0,0,0,5.4246,5.4322,5.4306,5.4319,5.4384,5.4443,5.4451,5.4439,5.4402,5.4439,5.4444,5.4414,5.4532,5.449,5.4504,5.4556,5.4673,5.4681,5.4689,5.4753,5.477,5.4785,0,0,0,0,0,0,5.4304,5.4324,5.4307,5.4391,5.4416,5.4433,5.4478,5.4457,5.4492,5.4485,5.4469,5.4474,5.4551,5.4561,5.4513,5.465,5.4597,5.4608,5.4641,5.4657,5.467,5.4666,5.4456,0,0,0,0,0,5.4328,5.4374,5.4388,5.4461,5.4475,5.4475,5.45,5.449,5.4514,5.4524,5.4534,5.4559,5.4602,5.463,5.467,5.4761,5.4766,5.4804,5.4817,5.4827,5.4837,5.4888,5.4905,5.4719,5.4719,5.4719,0,0,5.4374,5.4391,5.4421,5.4473,5.4491,5.454,5.4484,5.4537,5.4573,5.4532,5.4601,5.461,5.4637,5.472,5.4757,5.473,5.489,5.4838,5.4846,5.485,5.4898,5.4915,5.4931,5.4725,5.4724,5.4723,0,0,5.4485,5.4502,5.4566,5.4586,5.4615,5.4615,5.4631,5.4653,5.4658,5.4728,5.4698,5.4741,5.4815,5.4836,5.4856,5.4979,5.4954,5.4993,5.5061,5.511,5.5125,5.5138,5.5183,5.5199,5.5002,5.5003,5.5003,0,5.454,5.4612,5.4601,5.4658,5.4682,5.4649,5.4714,5.4734,5.4774,5.4792,5.4762,5.4856,5.4871,5.4959,5.499,5.5007,5.5025,5.4989,5.5124,5.5137,5.5149,5.5191,5.5208,5.5007,5.5007,5.5006,5.5006,0,5.4679,5.473,5.4778,5.482,5.485,5.491,5.4908,5.494,5.4928,5.4932,5.5005,5.5023,5.5067,5.5087,5.5075,5.5175,5.5157,5.5126,5.5072,5.5171,5.5211,5.5227,5.5014,5.5012,5.5011,5.5009,0,0,5.4825,5.4862,5.488,5.49,5.4931,5.497,5.503,5.5074,5.5103,5.5132,5.5182,5.5248,5.522,5.5243,5.5233,5.5277,5.5376,5.5241,5.5241,5.5266,5.5488,5.5511,5.553,5.536,5.5363,5.5365,5.5486,0,5.4937,5.5042,5.5035,5.5133,5.5181,5.5153,5.5205,5.523,5.5236,5.5278,5.5284,5.5331,5.529,5.5305,5.5347,5.5355,5.542,5.5346,5.5406,5.5409,5.54,5.5551,5.5574,5.5687,5.5501,5.5504,5.5506,0,5.5081,5.5118,5.5222,5.5249,5.5269,5.5316,5.5357,5.5398,5.5427,5.5428,5.5456,5.544,5.5501,5.5448,5.5532,5.5482,5.5507,5.5515,5.5519,5.5523,5.5462,5.5559,5.5723,5.574,5.553,5.5528,5.5526,0,5.5178,5.5254,5.5326,5.5344,5.5377,5.5411,5.5426,5.5452,5.548,5.5517,5.5535,5.5578,5.5601,5.5635,5.5632,5.5593,5.5719,5.5664,5.5722,5.5722,5.5748,5.5746,5.5918,5.5765,5.5765,5.5764,5.5764,0,5.5304,5.5368,5.5371,5.5415,5.5488,5.548,5.5552,5.5563,5.5587,5.5634,5.5612,5.5656,5.5649,5.5694,5.5691,5.5763,5.5773,5.5776,5.5775,5.5778,5.5778,5.5793,5.5785,5.5769,5.5768,5.5767,5.5766,0,5.5423,5.5427,5.5505,5.5531,5.5539,5.5591,5.5614,5.5656,5.5662,5.5721,5.5735,5.5743,5.5795,5.5796,5.5854,5.5853,5.594,5.593,5.5931,5.5929,5.5987,5.5981,5.6174,5.6199,5.603,5.6032,5.6033,0,5.5503,5.5552,5.5585,5.5615,5.5633,5.5682,5.5712,5.5707,5.5739,5.5777,5.5816,5.5866,5.5905,5.5989,5.6001,5.6046,5.6037,5.6101,5.6043,5.6046,5.6038,5.6035,5.604,5.6112,5.6114,5.6115,5.6117,0,5.5644,5.5645,5.5688,5.5734,5.577,5.5805,5.5838,5.5864,5.5863,5.59,5.5954,5.5985,5.6046,5.6096,5.6141,5.6157,5.6137,5.6135,5.6151,5.6154,5.6153,5.6155,5.5962,5.613,5.6129,5.6128,5.6127,5.6127,5.5746,5.579,5.582,5.587,5.5895,5.5927,5.5969,5.5981,5.6026,5.6077,5.6071,5.6131,5.6161,5.622,5.624,5.6287,5.6264,5.6287,5.6293,5.6298,5.6305,5.6147,5.6295,5.6294,5.6294,5.6294,5.6293,0,5.5886,5.5906,5.5952,5.6,5.604,5.602,5.6056,5.609,5.6144,5.6174,5.6215,5.6277,5.6327,5.6344,5.6392,5.6427,5.6419,5.6439,5.6436,5.6441,5.6322,5.6303,5.6445,5.6445,5.6445,5.6445,5.6445,5.6445,5.5964,5.6037,5.6042,5.6128,5.6147,5.6206,5.6229,5.6259,5.6283,5.6355,5.6396,5.6407,5.6433,5.6483,5.6529,5.6532,5.6551,5.6575,5.6575,5.6464,5.6449,5.6434,5.6417,5.658,5.658,5.669,5.6691,5.6692]},{"header":{"parameterUnit":"m.s-1","parameterCategory":1,"la1":30.2991,"la2":30.254,"lo1":-89.0895,"lo2":-89.0444,"dy":0.0017,"dx":0.0017,"nx":28,"ny":28,"refTime":"2024-04-02T09:00:00:Z","depth":0,"parameterNumber":3,"parameterNumberName":"V-component_of_WINDS"},"data":[0,0,0,0,0,0,0,0,0,0,0,0,0,0,0,0,0,0,0,0,0,0,0,0,0,0,0,0,0,0,0,0,0,0,0,0,0,0,0,0,0,0,0,0,0,0,0,0,0,0,0,0,0,0,0,0,0,0,-6.4454,-6.4455,0,-6.4578,-6.458,-6.4581,-6.4569,-6.4567,-6.4565,-6.4563,-6.4686,-6.4691,-6.4696,0,0,0,0,0,0,0,0,0,0,0,0,0,-6.4205,-6.421,-6.4454,-6.4456,-6.4457,-6.4578,-6.458,-6.4581,-6.4569,-6.4567,-6.4565,-6.4563,-6.4685,-6.4691,-6.4697,0,0,0,0,0,0,0,0,0,0,0,0,0,-6.4319,-6.4211,-6.4454,-6.4466,-6.4468,-6.4578,-6.458,-6.4582,-6.457,-6.4567,-6.4564,-6.4561,-6.4683,-6.469,-6.4698,-6.4802,0,0,-6.4721,-6.4724,0,0,0,0,0,0,0,0,-6.4313,-6.4328,-6.4462,-6.4465,-6.4468,-6.4555,-6.4537,-6.4655,-6.4571,-6.4531,-6.4563,-6.456,-6.4645,-6.4655,-6.4685,-6.4807,-6.4813,-6.4721,-6.4726,-6.4729,-6.4731,0,0,0,0,0,0,0,-6.4305,-6.4323,-6.4503,-6.4464,-6.4468,-6.4464,-6.4478,-6.4559,-6.4602,-6.4534,-6.4534,-6.4549,-6.4646,-6.4677,-6.4688,-6.4815,-6.4721,-6.4728,-6.4733,-6.4736,-6.5031,-6.5034,0,0,0,0,0,0,-6.4295,-6.4317,-6.4499,-6.4507,-6.4382,-6.4471,-6.4486,-6.453,-6.4601,-6.461,-6.4551,-6.4548,-6.4666,-6.4679,-6.4692,-6.482,-6.4729,-6.4736,-6.4741,-6.5028,-6.5032,-6.5036,0,0,0,0,0,0,-6.4289,-6.4311,-6.4494,-6.4412,-6.4435,-6.4479,-6.4528,-6.4534,-6.4566,-6.4614,-6.4622,-6.4576,-6.4664,-6.4681,-6.4775,-6.4824,-6.474,-6.4747,-6.5024,-6.5029,-6.5034,-6.5076,0,0,0,0,0,0,-6.4282,-6.4309,-6.4349,-6.4413,-6.4439,-6.4576,-6.4531,-6.4539,-6.4579,-6.4576,-6.4639,-6.4647,-6.4663,-6.4764,-6.4783,-6.4833,-6.4753,-6.502,-6.5026,-6.5032,-6.507,-6.5082,-6.5091,0,0,0,0,0,-6.4273,-6.4355,-6.4351,-6.4373,-6.4491,-6.4579,-6.4594,-6.4612,-6.4583,-6.4624,-6.4656,-6.4645,-6.4816,-6.4774,-6.4795,-6.4848,-6.5017,-6.5025,-6.5032,-6.5066,-6.5079,-6.5091,0,0,0,0,0,0,-6.4294,-6.4363,-6.436,-6.4465,-6.4516,-6.4577,-6.4628,-6.4626,-6.4685,-6.468,-6.4699,-6.4713,-6.4808,-6.4837,-6.4789,-6.4954,-6.4912,-6.4924,-6.4931,-6.4944,-6.4955,-6.4945,-6.4759,0,0,0,0,0,-6.4311,-6.4378,-6.4434,-6.4521,-6.4547,-6.4584,-6.4623,-6.4633,-6.4686,-6.4707,-6.4746,-6.4797,-6.4863,-6.4905,-6.4968,-6.5075,-6.5089,-6.5122,-6.5132,-6.5141,-6.5151,-6.5211,-6.5227,-6.506,-6.506,-6.506,0,0,-6.4346,-6.4392,-6.4433,-6.4527,-6.4568,-6.4636,-6.4602,-6.4675,-6.4726,-6.4718,-6.481,-6.484,-6.4899,-6.5001,-6.5047,-6.5028,-6.52,-6.515,-6.5157,-6.5162,-6.522,-6.5236,-6.525,-6.5065,-6.5064,-6.5063,0,0,-6.4445,-6.4487,-6.4565,-6.4607,-6.4671,-6.4695,-6.4714,-6.4776,-6.4796,-6.4889,-6.4886,-6.4946,-6.5058,-6.5101,-6.5137,-6.5256,-6.5249,-6.5276,-6.5331,-6.5389,-6.5402,-6.5414,-6.5457,-6.5473,-6.5286,-6.5286,-6.5286,0,-6.448,-6.4584,-6.4604,-6.468,-6.4722,-6.472,-6.4799,-6.4839,-6.4919,-6.4948,-6.4926,-6.5068,-6.5107,-6.522,-6.5249,-6.5279,-6.5301,-6.5268,-6.5399,-6.5411,-6.5422,-6.5464,-6.548,-6.5289,-6.5289,-6.5288,-6.5288,0,-6.4625,-6.4698,-6.4753,-6.4833,-6.4881,-6.4957,-6.4989,-6.5035,-6.5042,-6.5068,-6.5164,-6.5212,-6.5285,-6.5313,-6.5319,-6.5427,-6.5413,-6.5395,-6.5354,-6.5441,-6.548,-6.5496,-6.5293,-6.5292,-6.5291,-6.5291,0,0,-6.4739,-6.4831,-6.4851,-6.4889,-6.496,-6.5016,-6.5093,-6.5167,-6.5207,-6.5263,-6.5328,-6.5425,-6.5409,-6.545,-6.5462,-6.5513,-6.5606,-6.5489,-6.5491,-6.5509,-6.573,-6.5743,-6.5761,-6.5602,-6.5605,-6.5608,-6.5725,0,-6.4845,-6.4983,-6.5005,-6.5126,-6.5194,-6.5195,-6.5262,-6.5313,-6.5341,-6.5402,-6.5432,-6.5501,-6.5474,-6.55,-6.5551,-6.5584,-6.5651,-6.5576,-6.5663,-6.5666,-6.5648,-6.5781,-6.5795,-6.5903,-6.574,-6.5743,-6.5745,0,-6.4988,-6.5051,-6.5179,-6.5244,-6.5273,-6.5333,-6.5404,-6.5462,-6.5521,-6.5537,-6.5585,-6.5591,-6.5671,-6.5628,-6.5739,-6.5688,-6.5725,-6.5747,-6.5751,-6.576,-6.571,-6.5793,-6.5938,-6.5954,-6.5769,-6.5767,-6.5765,0,-6.5059,-6.5175,-6.5268,-6.5299,-6.5377,-6.5419,-6.5453,-6.5509,-6.5553,-6.5615,-6.5643,-6.5713,-6.5751,-6.5804,-6.5829,-6.5795,-6.5939,-6.5897,-6.5954,-6.5954,-6.5984,-6.5982,-6.6136,-6.6008,-6.6008,-6.6008,-6.6007,0,-6.5176,-6.5254,-6.5301,-6.5358,-6.5446,-6.5471,-6.5558,-6.559,-6.5641,-6.5704,-6.5708,-6.5767,-6.5796,-6.586,-6.5879,-6.5969,-6.5986,-6.6001,-6.6006,-6.6001,-6.5999,-6.6025,-6.6018,-6.6012,-6.6011,-6.601,-6.6009,0,-6.5269,-6.5304,-6.5405,-6.5471,-6.549,-6.5552,-6.5608,-6.5664,-6.5692,-6.5772,-6.5792,-6.5836,-6.5911,-6.5942,-6.6033,-6.6046,-6.615,-6.6148,-6.6131,-6.6132,-6.6188,-6.6183,-6.6365,-6.639,-6.6245,-6.6246,-6.6248,0,-6.5342,-6.5403,-6.5477,-6.552,-6.5556,-6.5626,-6.5672,-6.5699,-6.5746,-6.5819,-6.5865,-6.5941,-6.6003,-6.6123,-6.6163,-6.6233,-6.6233,-6.6292,-6.6244,-6.6238,-6.6235,-6.6231,-6.6238,-6.6301,-6.6302,-6.6304,-6.6305,0,-6.5467,-6.5481,-6.5547,-6.5621,-6.5676,-6.5734,-6.579,-6.5826,-6.5861,-6.5914,-6.5993,-6.6041,-6.6136,-6.6211,-6.6284,-6.6319,-6.6318,-6.632,-6.6337,-6.6333,-6.6321,-6.6329,-6.6155,-6.6315,-6.6314,-6.6313,-6.6313,-6.6312,-6.5552,-6.5607,-6.5669,-6.5743,-6.5789,-6.5843,-6.5899,-6.5935,-6.6001,-6.6082,-6.6094,-6.6178,-6.6237,-6.6335,-6.6373,-6.6439,-6.6423,-6.6448,-6.6454,-6.646,-6.6464,-6.6311,-6.6452,-6.6452,-6.6452,-6.6451,-6.6451,0,-6.5678,-6.5719,-6.5787,-6.5867,-6.5926,-6.5922,-6.5986,-6.6035,-6.6109,-6.6165,-6.6226,-6.6317,-6.6391,-6.6438,-6.6512,-6.6556,-6.6557,-6.6574,-6.6571,-6.6579,-6.6473,-6.6451,-6.6572,-6.6572,-6.6572,-6.6572,-6.6572,-6.6572,-6.5751,-6.5844,-6.5867,-6.5984,-6.6023,-6.6107,-6.6143,-6.6193,-6.6238,-6.634,-6.6402,-6.6432,-6.6485,-6.6564,-6.6631,-6.6643,-6.667,-6.6688,-6.6699,-6.6599,-6.6586,-6.6575,-6.6554,-6.6694,-6.6694,-6.68,-6.6801,-6.6801]}]]